This is the latest recevied weather packets stored in our database for station/object K1RFS. If no packets are shown the sender has not sent any weather packets the latest 10 day(s).
| Time | Temp. | Humidity | Pressure | Rain* | Wind** | Luminosity | Snow |
|---|---|---|---|---|---|---|---|
| 1777469809 | 3.89° C | 61% | 1005.5 hPa | 0 mm | - | 20 W/m² | - |
| 1777469505 | 3.33° C | 63% | 1005.6 hPa | 0 mm | - | 19 W/m² | - |
| 1777469201 | 2.78° C | 64% | 1005.6 hPa | 0 mm | - | 18 W/m² | - |
| 1777468895 | 2.78° C | 65% | 1005.5 hPa | 0 mm | - | 17 W/m² | - |
| 1777468592 | 2.78° C | 64% | 1005.6 hPa | 0 mm | - | 16 W/m² | - |
| 1777468289 | 2.22° C | 64% | 1005.5 hPa | 0 mm | - | 15 W/m² | - |
| 1777467985 | 2.22° C | 65% | 1005.6 hPa | 0 mm | - | 13 W/m² | - |
| 1777467681 | 1.67° C | 66% | 1005.5 hPa | 0 mm | - | 12 W/m² | - |
| 1777467376 | 1.67° C | 66% | 1005.6 hPa | 0 mm | - | 10 W/m² | - |
| 1777467072 | 1.67° C | 66% | 1005.6 hPa | 0 mm | - | 8 W/m² | - |
| 1777466769 | 1.67° C | 66% | 1005.5 hPa | 0 mm | - | 6 W/m² | - |
| 1777466468 | 1.67° C | 66% | 1005.4 hPa | 0 mm | - | 5 W/m² | - |
| 1777466164 | 2.22° C | 65% | 1005.4 hPa | 0 mm | - | 3 W/m² | - |
| 1777465860 | 2.22° C | 65% | 1005.5 hPa | 0 mm | - | 2 W/m² | - |
| 1777465556 | 2.22° C | 64% | 1005.5 hPa | 0 mm | - | 1 W/m² | - |
| 1777465256 | 2.78° C | 64% | 1005.3 hPa | 0 mm | - | 1 W/m² | - |
| 1777464951 | 2.78° C | 62% | 1005.3 hPa | 0 mm | - | 0 W/m² | - |
| 1777464646 | 2.78° C | 62% | 1005.4 hPa | 0 mm | - | 0 W/m² | - |
| 1777464343 | 2.78° C | 61% | 1005.4 hPa | 0 mm | - | 0 W/m² | - |
| 1777464038 | 2.78° C | 60% | 1005.4 hPa | 0 mm | - | 0 W/m² | - |
| 1777463734 | 2.78° C | 60% | 1005.3 hPa | 0 mm | - | 0 W/m² | - |
| 1777463428 | 2.78° C | 61% | 1005.4 hPa | 0 mm | - | 0 W/m² | - |
| 1777463125 | 2.78° C | 60% | 1005.2 hPa | 0 mm | - | 0 W/m² | - |
| 1777462821 | 3.33° C | 60% | 1005.3 hPa | 0 mm | - | 0 W/m² | - |
| 1777462516 | 3.33° C | 58% | 1005.2 hPa | 0 mm | - | 0 W/m² | - |
* Rain latest hour (hover to see other rain measurements)
** Current wind speed in m/s (hover to see current wind gust speed)